{"data":{"norad_id":65459,"epoch":"2026-05-25T04:00:03.998880Z","epoch_age_seconds":70797,"freshness":"FRESH","line1":"1 65459U 25195B   26145.16671295  .00066848  00000+0  19737-2 0  9996","line2":"2 65459  53.1580 262.7418 0001226  92.9439 340.5159 15.34373055  5806","mean_motion":15.34373055,"eccentricity":0.0001226,"inclination_deg":53.158,"raan_deg":262.7418,"arg_perigee_deg":92.9439,"mean_anomaly_deg":340.5159,"bstar":0.0019737,"rev_number":580,"period_min":93.849406134156,"perigee_km":461.94463076533,"apogee_km":463.62202442966,"semimajor_km":6840.9203275975,"source":"CELESTRAK","updated_at":"2026-05-25T13:38:20.811544Z"}}